WJA1837 KLAS-CYXE

Flight info

Callsign WJA1837
Flight time 2h 39m
Altitude 37000
Route RATPK3 FRNCK DCT BERYL J9 FFU/N0461F380 J9 DLN/N0459F370 J9 GTF J7 GGRBI/N0456F380 DCT RAWZY/N0456F390 Q827 ITREK Q838 SEFFY DCT CAREN CAREN4
Aircraft B737/M-SDE2E3FGHIRWXY/LB1

Departure

Time 2026-04-30 17:42
Airport Harry Reid International Airport (KLAS)

Arrival

Time 2026-04-30 20:21
Airport Saskatoon John G. Diefenbaker International Airport (CYXE)
Time Latitude Longitude Altitude Speed Heading
2026-04-30 17:39 36.07707 -115.16367 2141 ft 13 kts 204°
2026-04-30 17:41 36.09881 -115.15343 2760 ft 169 kts 27°
2026-04-30 17:42 36.12031 -115.13937 4012 ft 195 kts 44°
2026-04-30 17:42 36.13199 -115.08365 5165 ft 255 kts 81°
2026-04-30 17:43 36.13625 -115.03899 6900 ft 261 kts 81°
2026-04-30 17:44 36.14344 -114.96920 9464 ft 280 kts 74°
2026-04-30 17:44 36.17848 -114.90686 11065 ft 320 kts 47°
2026-04-30 17:46 36.25200 -114.79736 15076 ft 345 kts 48°
2026-04-30 17:47 36.31553 -114.70165 17994 ft 372 kts 47°
2026-04-30 17:48 36.38457 -114.60417 20998 ft 375 kts 34°
2026-04-30 17:48 36.44804 -114.54610 23201 ft 381 kts 32°
2026-04-30 17:49 36.53404 -114.46501 25354 ft 397 kts 33°
2026-04-30 17:50 36.62828 -114.38935 27241 ft 411 kts 27°
2026-04-30 17:51 36.70241 -114.33303 28551 ft 425 kts 28°
2026-04-30 17:52 36.77877 -114.27386 29830 ft 437 kts 28°
2026-04-30 17:53 36.90998 -114.17154 31534 ft 452 kts 28°
2026-04-30 17:54 37.00868 -114.09432 32634 ft 461 kts 28°
2026-04-30 17:55 37.11742 -114.00895 34129 ft 461 kts 28°
2026-04-30 17:56 37.22597 -113.92344 35372 ft 461 kts 28°
2026-04-30 17:57 37.30725 -113.85924 36263 ft 460 kts 28°
2026-04-30 17:58 37.38851 -113.79487 37012 ft 461 kts 27°
2026-04-30 17:59 37.49946 -113.70681 37021 ft 479 kts 27°
2026-04-30 18:00 37.61254 -113.61656 37011 ft 477 kts 27°
2026-04-30 18:01 37.75064 -113.50606 37020 ft 469 kts 27°
2026-04-30 18:02 37.91610 -113.37307 37056 ft 471 kts 26°
2026-04-30 18:04 38.08276 -113.23851 37017 ft 475 kts 26°
2026-04-30 18:06 38.30551 -113.05751 37133 ft 476 kts 26°
2026-04-30 18:07 38.42082 -112.97814 37140 ft 466 kts 15°
2026-04-30 18:08 38.51080 -112.93078 37136 ft 467 kts 15°
2026-04-30 18:10 38.74957 -112.80090 37063 ft 465 kts 16°
2026-04-30 18:11 38.95744 -112.68669 37069 ft 464 kts 15°
2026-04-30 18:13 39.10522 -112.60503 37089 ft 462 kts 15°
2026-04-30 18:14 39.25246 -112.52332 37064 ft 461 kts 15°
2026-04-30 18:15 39.42875 -112.42497 37079 ft 460 kts 16°
2026-04-30 18:16 39.54609 -112.35922 37071 ft 459 kts 16°
2026-04-30 18:17 39.60469 -112.32629 37076 ft 459 kts 16°
2026-04-30 18:18 39.69252 -112.27682 37071 ft 459 kts 16°
2026-04-30 18:18 39.75096 -112.24381 37079 ft 458 kts 16°
2026-04-30 18:19 39.80935 -112.21078 37113 ft 457 kts 16°
2026-04-30 18:19 39.86760 -112.17777 37096 ft 457 kts 17°
2026-04-30 18:20 39.92582 -112.14471 37092 ft 456 kts 16°
2026-04-30 18:20 39.98399 -112.11159 37095 ft 457 kts 17°
2026-04-30 18:21 40.04211 -112.07772 37127 ft 458 kts 18°
2026-04-30 18:21 40.10024 -112.04361 37133 ft 458 kts 18°
2026-04-30 18:22 40.15840 -112.00949 37141 ft 458 kts 18°
2026-04-30 18:22 40.21682 -111.97524 37286 ft 462 kts 18°
2026-04-30 18:22 40.24622 -111.95883 37567 ft 456 kts 13°
2026-04-30 18:23 40.27661 -111.94815 37877 ft 448 kts
2026-04-30 18:23 40.30724 -111.94311 38119 ft 442 kts 357°
2026-04-30 18:23 40.36860 -111.94614 38140 ft 441 kts 351°
2026-04-30 18:24 40.46001 -111.95387 38161 ft 437 kts 351°
2026-04-30 18:25 40.52024 -111.95839 38185 ft 435 kts 352°
2026-04-30 18:25 40.61119 -111.96488 38188 ft 434 kts 352°
2026-04-30 18:26 40.70183 -111.97136 38179 ft 436 kts 352°
2026-04-30 18:27 40.79289 -111.97790 38179 ft 438 kts 352°
2026-04-30 18:28 40.88429 -111.98439 38188 ft 440 kts 353°
2026-04-30 18:28 40.97625 -111.99048 38165 ft 442 kts 353°
2026-04-30 18:29 41.09880 -111.99860 38194 ft 443 kts 353°
2026-04-30 18:30 41.22200 -112.00690 38173 ft 443 kts 353°
2026-04-30 18:31 41.31437 -112.01314 38177 ft 443 kts 353°
2026-04-30 18:32 41.40670 -112.01937 38155 ft 443 kts 353°
2026-04-30 18:33 41.49917 -112.02565 38188 ft 444 kts 353°
2026-04-30 18:33 41.59161 -112.03193 38185 ft 443 kts 353°
2026-04-30 18:34 41.68388 -112.03822 38191 ft 443 kts 353°
2026-04-30 18:35 41.74540 -112.04243 38205 ft 442 kts 353°
2026-04-30 18:35 41.80679 -112.04664 38189 ft 442 kts 353°
2026-04-30 18:36 41.89900 -112.05297 38193 ft 442 kts 353°
2026-04-30 18:37 41.99124 -112.05932 38185 ft 442 kts 353°
2026-04-30 18:37 42.05266 -112.06355 38201 ft 442 kts 353°
2026-04-30 18:38 42.11406 -112.06780 38170 ft 442 kts 354°
2026-04-30 18:38 42.16515 -112.07133 38177 ft 441 kts 354°
2026-04-30 18:39 42.22647 -112.07555 38194 ft 441 kts 354°
2026-04-30 18:39 42.28787 -112.07987 38190 ft 442 kts 354°
2026-04-30 18:40 42.34933 -112.08417 38184 ft 443 kts 354°
2026-04-30 18:40 42.41095 -112.08847 38183 ft 444 kts 354°
2026-04-30 18:41 42.47264 -112.09277 38194 ft 444 kts 354°
2026-04-30 18:41 42.53436 -112.09710 38194 ft 444 kts 354°
2026-04-30 18:42 42.59610 -112.10144 38198 ft 444 kts 354°
2026-04-30 18:42 42.68878 -112.10796 38197 ft 444 kts 354°
2026-04-30 18:45 43.02715 -112.13195 38218 ft 442 kts 354°
2026-04-30 18:46 43.08866 -112.13634 38208 ft 442 kts 354°
2026-04-30 18:46 43.14999 -112.14073 38211 ft 441 kts 354°
2026-04-30 18:47 43.21139 -112.14514 38225 ft 441 kts 354°
2026-04-30 18:47 43.27258 -112.14950 38218 ft 441 kts 354°
2026-04-30 18:48 43.33382 -112.15391 38237 ft 440 kts 354°
2026-04-30 18:48 43.39504 -112.15833 38238 ft 440 kts 354°
2026-04-30 18:49 43.45616 -112.16276 38240 ft 440 kts 354°
2026-04-30 18:49 43.51718 -112.16718 38245 ft 440 kts 354°
2026-04-30 18:50 43.57828 -112.17160 38250 ft 440 kts 354°
2026-04-30 18:50 43.63940 -112.17604 38209 ft 440 kts 354°
2026-04-30 18:51 43.70055 -112.18050 38201 ft 440 kts 354°
2026-04-30 18:51 43.76166 -112.18494 38213 ft 440 kts 354°
2026-04-30 18:52 43.82280 -112.18942 38214 ft 440 kts 355°
2026-04-30 18:52 43.88390 -112.19390 38207 ft 440 kts 355°
2026-04-30 18:53 43.94508 -112.19840 38225 ft 440 kts 355°
2026-04-30 18:53 44.00582 -112.20286 38204 ft 440 kts 355°
2026-04-30 18:54 44.06690 -112.20738 38199 ft 439 kts 355°
2026-04-30 18:54 44.12726 -112.21798 38232 ft 437 kts 347°
2026-04-30 18:55 44.18664 -112.23562 38221 ft 436 kts 346°
2026-04-30 18:55 44.27575 -112.26235 38224 ft 436 kts 347°
2026-04-30 18:56 44.36481 -112.28813 38219 ft 435 kts 347°
2026-04-30 18:57 44.45379 -112.31379 38235 ft 436 kts 347°
2026-04-30 18:57 44.51313 -112.33096 38244 ft 437 kts 347°
2026-04-30 18:58 44.60254 -112.35691 38247 ft 437 kts 347°
2026-04-30 18:59 44.69188 -112.38293 38238 ft 437 kts 347°
2026-04-30 19:00 44.81046 -112.41757 38258 ft 436 kts 347°
2026-04-30 19:01 44.92952 -112.45252 38250 ft 437 kts 347°
2026-04-30 19:02 45.01891 -112.47884 38250 ft 437 kts 347°
2026-04-30 19:03 45.13793 -112.51403 38267 ft 437 kts 347°
2026-04-30 19:04 45.25843 -112.53526 38484 ft 441 kts
2026-04-30 19:04 45.31804 -112.51481 39025 ft 442 kts 17°
2026-04-30 19:05 45.37595 -112.48550 39246 ft 442 kts 18°
2026-04-30 19:06 45.49202 -112.42646 39279 ft 443 kts 17°
2026-04-30 19:06 45.57935 -112.38277 39298 ft 443 kts 17°
2026-04-30 19:07 45.66655 -112.33910 39278 ft 442 kts 17°
2026-04-30 19:08 45.78234 -112.28085 39283 ft 441 kts 17°
2026-04-30 19:09 45.86898 -112.23709 39289 ft 440 kts 17°
2026-04-30 19:09 45.92665 -112.20786 39298 ft 439 kts 17°
2026-04-30 19:10 46.04139 -112.14955 39295 ft 438 kts 18°
2026-04-30 19:11 46.12757 -112.10559 39303 ft 438 kts 18°
2026-04-30 19:12 46.18507 -112.07618 39312 ft 439 kts 18°
2026-04-30 19:12 46.24264 -112.04667 39323 ft 439 kts 18°
2026-04-30 19:13 46.35785 -111.98742 39323 ft 440 kts 18°
2026-04-30 19:14 46.41554 -111.95763 39286 ft 440 kts 18°
2026-04-30 19:14 46.47331 -111.92775 39280 ft 441 kts 18°
2026-04-30 19:15 46.53103 -111.89781 39262 ft 440 kts 18°
2026-04-30 19:15 46.61754 -111.85284 39272 ft 440 kts 18°
2026-04-30 19:16 46.67469 -111.82304 39268 ft 439 kts 18°
2026-04-30 19:17 46.76089 -111.77800 39280 ft 438 kts 18°
2026-04-30 19:17 46.84681 -111.73291 39288 ft 438 kts 18°
2026-04-30 19:18 46.93241 -111.68783 39287 ft 438 kts 18°
2026-04-30 19:19 46.99011 -111.65737 39273 ft 438 kts 18°
2026-04-30 19:19 47.07552 -111.61212 39261 ft 437 kts 18°
2026-04-30 19:20 47.13260 -111.58183 39253 ft 437 kts 18°
2026-04-30 19:21 47.21829 -111.53626 39258 ft 436 kts 18°
2026-04-30 19:22 47.33254 -111.47512 39241 ft 437 kts 19°
2026-04-30 19:23 47.49595 -111.35863 39255 ft 440 kts 37°
2026-04-30 19:24 47.56658 -111.27131 39245 ft 441 kts 38°
2026-04-30 19:25 47.68478 -111.12611 39234 ft 441 kts 38°
2026-04-30 19:26 47.77186 -111.01929 39235 ft 442 kts 38°
2026-04-30 19:27 47.84240 -110.93232 39228 ft 441 kts 38°
2026-04-30 19:28 47.91314 -110.84477 39230 ft 441 kts 38°
2026-04-30 19:29 48.00731 -110.72779 39242 ft 440 kts 38°
2026-04-30 19:30 48.10129 -110.61047 39228 ft 440 kts 38°
2026-04-30 19:31 48.19476 -110.49314 39250 ft 437 kts 38°
2026-04-30 19:31 48.26464 -110.40510 39235 ft 438 kts 38°
2026-04-30 19:32 48.31137 -110.34608 39229 ft 437 kts 38°
2026-04-30 19:32 48.35783 -110.28721 39229 ft 437 kts 38°
2026-04-30 19:33 48.40428 -110.22819 39232 ft 436 kts 38°
2026-04-30 19:33 48.45056 -110.16917 39244 ft 436 kts 38°
2026-04-30 19:34 48.49688 -110.11003 39229 ft 436 kts 38°
2026-04-30 19:35 48.56592 -110.02159 39219 ft 435 kts 38°
2026-04-30 19:35 48.61195 -109.96250 39226 ft 434 kts 38°
2026-04-30 19:36 48.65800 -109.90317 39231 ft 436 kts 38°
2026-04-30 19:36 48.72718 -109.81382 39220 ft 435 kts 38°
2026-04-30 19:37 48.77315 -109.75424 39219 ft 434 kts 39°
2026-04-30 19:37 48.81891 -109.69479 39217 ft 433 kts 39°
2026-04-30 19:38 48.86465 -109.63522 39226 ft 433 kts 39°
2026-04-30 19:38 48.91027 -109.57562 39230 ft 432 kts 39°
2026-04-30 19:39 48.95582 -109.51600 39207 ft 432 kts 39°
2026-04-30 19:39 49.00129 -109.45634 39213 ft 431 kts 39°
2026-04-30 19:40 49.04662 -109.39671 39211 ft 430 kts 39°
2026-04-30 19:40 49.09190 -109.33710 39210 ft 430 kts 39°
2026-04-30 19:41 49.13724 -109.27720 39217 ft 431 kts 39°
2026-04-30 19:41 49.18254 -109.21719 39216 ft 431 kts 39°
2026-04-30 19:42 49.22773 -109.15717 39216 ft 431 kts 39°
2026-04-30 19:42 49.27293 -109.09692 39214 ft 431 kts 39°
2026-04-30 19:43 49.31798 -109.03678 39220 ft 429 kts 39°
2026-04-30 19:44 49.38547 -108.94645 39216 ft 429 kts 39°
2026-04-30 19:44 49.43036 -108.88611 39217 ft 429 kts 39°
2026-04-30 19:45 49.47519 -108.82576 39221 ft 429 kts 39°
2026-04-30 19:45 49.52006 -108.76525 39218 ft 429 kts 39°
2026-04-30 19:46 49.56442 -108.70510 39240 ft 428 kts 39°
2026-04-30 19:46 49.60926 -108.64428 39233 ft 429 kts 39°
2026-04-30 19:47 49.65402 -108.58341 39225 ft 429 kts 39°
2026-04-30 19:47 49.69881 -108.52233 39228 ft 429 kts 39°
2026-04-30 19:48 49.74349 -108.46119 39227 ft 429 kts 39°
2026-04-30 19:48 49.78820 -108.39991 39229 ft 430 kts 39°
2026-04-30 19:49 49.83301 -108.33836 39236 ft 430 kts 39°
2026-04-30 19:49 49.90005 -108.24590 39231 ft 430 kts 39°
2026-04-30 19:50 49.94463 -108.18422 39229 ft 429 kts 39°
2026-04-30 19:50 49.98909 -108.12257 39233 ft 428 kts 39°
2026-04-30 19:51 50.03345 -108.06085 39230 ft 428 kts 39°
2026-04-30 19:51 50.07780 -107.99899 39233 ft 427 kts 39°
2026-04-30 19:52 50.12197 -107.93727 39229 ft 426 kts 39°
2026-04-30 19:52 50.16607 -107.87548 39234 ft 426 kts 39°
2026-04-30 19:53 50.21008 -107.81362 39231 ft 426 kts 39°
2026-04-30 19:53 50.25413 -107.75160 39183 ft 426 kts 39°
2026-04-30 19:54 50.30097 -107.69583 39194 ft 422 kts 27°
2026-04-30 19:54 50.35474 -107.66091 39194 ft 418 kts 16°
2026-04-30 19:55 50.41031 -107.63394 39190 ft 418 kts 16°
2026-04-30 19:55 50.46594 -107.60697 39201 ft 418 kts 16°
2026-04-30 19:56 50.52131 -107.57962 39217 ft 418 kts 17°
2026-04-30 19:56 50.57677 -107.55198 39225 ft 418 kts 16°
2026-04-30 19:57 50.63176 -107.52449 39246 ft 418 kts 17°
2026-04-30 19:57 50.68724 -107.49665 39250 ft 418 kts 16°
2026-04-30 19:58 50.74278 -107.46871 38912 ft 421 kts 17°
2026-04-30 19:58 50.77048 -107.45475 38312 ft 416 kts 17°
2026-04-30 19:58 50.79797 -107.44088 37673 ft 412 kts 17°
2026-04-30 19:59 50.82518 -107.42713 37013 ft 409 kts 17°
2026-04-30 19:59 50.85210 -107.41353 36352 ft 405 kts 17°
2026-04-30 19:59 50.90543 -107.38652 34996 ft 398 kts 17°
2026-04-30 20:00 50.93175 -107.37317 34107 ft 398 kts 17°
2026-04-30 20:00 50.95792 -107.35987 33323 ft 392 kts 17°
2026-04-30 20:00 50.98395 -107.34662 32408 ft 392 kts 17°
2026-04-30 20:00 51.00993 -107.33339 31534 ft 392 kts 17°
2026-04-30 20:01 51.06154 -107.30706 30073 ft 385 kts 17°
2026-04-30 20:01 51.08689 -107.29411 29431 ft 380 kts 17°
2026-04-30 20:01 51.11181 -107.28135 28760 ft 374 kts 17°
2026-04-30 20:02 51.16078 -107.25624 27522 ft 364 kts 17°
2026-04-30 20:02 51.18474 -107.24393 26916 ft 360 kts 17°
2026-04-30 20:03 51.23202 -107.21963 25705 ft 355 kts 17°
2026-04-30 20:03 51.25516 -107.20772 25088 ft 353 kts 16°
2026-04-30 20:03 51.27878 -107.19554 24481 ft 352 kts 16°
2026-04-30 20:03 51.30209 -107.18351 23868 ft 352 kts 16°
2026-04-30 20:04 51.32533 -107.17150 23172 ft 351 kts 16°
2026-04-30 20:04 51.34851 -107.15951 22550 ft 349 kts 16°
2026-04-30 20:04 51.37127 -107.14772 21941 ft 347 kts 16°
2026-04-30 20:05 51.41759 -107.12631 20853 ft 341 kts 13°
2026-04-30 20:05 51.44059 -107.11753 20287 ft 340 kts 12°
2026-04-30 20:05 51.48678 -107.10019 19047 ft 342 kts 12°
2026-04-30 20:06 51.50997 -107.09137 18418 ft 343 kts 12°
2026-04-30 20:06 51.53328 -107.08240 17684 ft 344 kts 12°
2026-04-30 20:06 51.55651 -107.07341 16950 ft 343 kts 12°
2026-04-30 20:06 51.57961 -107.06442 16275 ft 339 kts 12°
2026-04-30 20:07 51.60207 -107.05566 15665 ft 335 kts 12°
2026-04-30 20:07 51.62459 -107.04686 15040 ft 332 kts 12°
2026-04-30 20:07 51.66906 -107.02947 13805 ft 326 kts 12°
2026-04-30 20:08 51.69104 -107.02087 13147 ft 324 kts 12°
2026-04-30 20:08 51.71287 -107.01227 12497 ft 321 kts 13°
2026-04-30 20:08 51.73456 -107.00340 11799 ft 322 kts 13°
2026-04-30 20:08 51.75619 -106.99441 11185 ft 319 kts 14°
2026-04-30 20:09 51.77757 -106.98550 10734 ft 313 kts 14°
2026-04-30 20:09 51.79811 -106.97694 10573 ft 298 kts 13°
2026-04-30 20:09 51.83648 -106.96097 10320 ft 272 kts 13°
2026-04-30 20:10 51.87154 -106.94640 10094 ft 249 kts 13°
2026-04-30 20:10 51.88795 -106.93957 9982 ft 239 kts 13°
2026-04-30 20:10 51.90367 -106.93302 9871 ft 229 kts 13°
2026-04-30 20:11 51.93352 -106.91996 9682 ft 221 kts 23°
2026-04-30 20:11 51.94573 -106.90435 9463 ft 230 kts 46°
2026-04-30 20:11 51.95585 -106.88368 9198 ft 236 kts 50°
2026-04-30 20:12 51.97520 -106.84103 8633 ft 233 kts 50°
2026-04-30 20:12 51.98476 -106.82000 8355 ft 231 kts 50°
2026-04-30 20:12 51.99429 -106.79915 8089 ft 229 kts 50°
2026-04-30 20:13 52.00379 -106.77839 7819 ft 228 kts 50°
2026-04-30 20:13 52.01005 -106.76475 7642 ft 227 kts 50°
2026-04-30 20:13 52.01935 -106.74454 7406 ft 220 kts 50°
2026-04-30 20:13 52.02833 -106.72502 7146 ft 212 kts 50°
2026-04-30 20:14 52.03707 -106.70606 6840 ft 209 kts 50°
2026-04-30 20:14 52.04566 -106.68739 6723 ft 206 kts 50°
2026-04-30 20:14 52.05413 -106.66893 6481 ft 200 kts 50°
2026-04-30 20:14 52.06230 -106.65114 6234 ft 192 kts 50°
2026-04-30 20:15 52.06699 -106.63152 6019 ft 190 kts 83°
2026-04-30 20:15 52.06810 -106.60994 5825 ft 192 kts 82°
2026-04-30 20:15 52.06930 -106.58817 5610 ft 194 kts 83°
2026-04-30 20:15 52.07071 -106.56622 5367 ft 195 kts 78°
2026-04-30 20:16 52.07456 -106.54584 5105 ft 182 kts 60°
2026-04-30 20:16 52.08144 -106.53014 4930 ft 159 kts 41°
2026-04-30 20:16 52.08971 -106.51976 4707 ft 144 kts 26°
2026-04-30 20:16 52.09869 -106.51258 4530 ft 144 kts 15°
2026-04-30 20:17 52.10841 -106.50823 4399 ft 147 kts
2026-04-30 20:17 52.11857 -106.50755 4203 ft 145 kts 350°
2026-04-30 20:17 52.12828 -106.51046 3966 ft 138 kts 336°
2026-04-30 20:17 52.13633 -106.51780 3724 ft 130 kts 316°
2026-04-30 20:18 52.14270 -106.52848 3612 ft 133 kts 304°
2026-04-30 20:18 52.14821 -106.54044 3418 ft 131 kts 302°
2026-04-30 20:18 52.15318 -106.55290 3186 ft 132 kts 297°
2026-04-30 20:18 52.15749 -106.56608 3034 ft 132 kts 293°
2026-04-30 20:19 52.16099 -106.57959 2837 ft 130 kts 288°
2026-04-30 20:19 52.16345 -106.59326 2648 ft 127 kts 282°
2026-04-30 20:19 52.16536 -106.60735 2455 ft 128 kts 279°
2026-04-30 20:19 52.16690 -106.62184 2396 ft 131 kts 278°
2026-04-30 20:20 52.16863 -106.63655 2250 ft 130 kts 282°
2026-04-30 20:20 52.17045 -106.65079 2087 ft 128 kts 279°
2026-04-30 20:20 52.17213 -106.66486 1886 ft 127 kts 281°
2026-04-30 20:20 52.17384 -106.67869 1710 ft 123 kts 281°
2026-04-30 20:21 52.17542 -106.69217 1652 ft 108 kts 281°
2026-04-30 20:21 52.17647 -106.70093 1647 ft 49 kts 281°
2026-04-30 20:21 52.17687 -106.70423 1646 ft 23 kts 281°
2026-04-30 20:21 52.17716 -106.70676 1646 ft 22 kts 280°
2026-04-30 20:22 52.17744 -106.70925 1650 ft 22 kts 282°
2026-04-30 20:22 52.17774 -106.71161 1650 ft 21 kts 282°
2026-04-30 20:22 52.17802 -106.71396 1650 ft 21 kts 281°
2026-04-30 20:22 52.17829 -106.71621 1650 ft 20 kts 281°
2026-04-30 20:23 52.17789 -106.71801 1648 ft 19 kts 188°
2026-04-30 20:23 52.17688 -106.71724 1649 ft 14 kts 146°
2026-04-30 20:23 52.17618 -106.71648 1649 ft 10 kts 146°
2026-04-30 20:23 52.17561 -106.71586 1649 ft 10 kts 147°
2026-04-30 20:24 52.17508 -106.71521 1649 ft 9 kts 134°
2026-04-30 20:24 52.17481 -106.71427 1649 ft 9 kts 100°
2026-04-30 20:24 52.17470 -106.71325 1649 ft 9 kts 100°
2026-04-30 20:24 52.17459 -106.71226 1649 ft 9 kts 101°
2026-04-30 20:25 52.17436 -106.71038 1649 ft 8 kts 101°
2026-04-30 20:25 52.17425 -106.70949 1649 ft 8 kts 101°
2026-04-30 20:26 52.17405 -106.70780 1649 ft 7 kts 100°
2026-04-30 20:26 52.17387 -106.70625 1649 ft 7 kts 101°
2026-04-30 20:26 52.17378 -106.70545 1649 ft 8 kts 101°
2026-04-30 20:27 52.17351 -106.70331 1649 ft 11 kts 103°
2026-04-30 20:27 52.17315 -106.70045 1649 ft 15 kts 100°
2026-04-30 20:28 52.17274 -106.69705 1649 ft 14 kts 109°
2026-04-30 20:28 52.17105 -106.69580 1649 ft 13 kts 161°
2026-04-30 20:29 52.17006 -106.69449 1649 ft 7 kts 47°
2026-04-30 20:30 52.17100 -106.69287 1649 ft 7 kts 72°
2026-04-30 20:30 52.17027 -106.69196 1649 ft 2 kts 157°
2026-04-30 20:31 52.17025 -106.69194 1649 ft 0 kts 157°